User: anonymous   Login
Location: Unspecified
(0.0000°N, 0.0000°E)
Time: 14:09:27
(UTC+02:00)
Language:

Cosmos 1703 - Orbit

View from above orbital plane
View from above orbital plane
View from above satellite
View from above satellite

Ground track
Ground track

The orbit data is extracted from the following two-line orbital elements,

1 16262U 85108A   16182.23229109  .00001156  00000-0  69733-4 0  9990
2 16262  82.4758 235.4379 0011324  59.4903 300.7443 15.09771684665788
Epoch (UTC): 30 June 2016 05:34:29
Eccentricity: 0.0011324
inclination: 82.4758°
perigee height: 529 km
apogee height: 545 km
right ascension of ascending node: 235.4379°
argument of perigee: 59.4903°
revolutions per day: 15.09771684
mean anomaly at epoch: 300.7443°
orbit number at epoch: 66578

The dashed part of the orbit path shows where the satellite is in the earth's shadow,  

DLR